[Date Prev][Date Next][Thread Prev][Thread Next][Date Index][Thread Index]

[jamsat-news:1068] jas2info #131



=========================   最新情報   ==============================

        Last updated :Sat.17-Apr.-1999 16:30 (JST) #131

====================================================================
   
     衛星情報 FOシリーズの軌道要素、テレメトリ、QSOの状況等を
   まとめてみました.

  1)  FO−29(ふじ3号)は、4月17日(土)16:15(JST)の
     パスではJAモードのアナログ系運用になっており、テレメトリは
     CWモールスの信号で力強くRS59+10dbで安定して聞こえました.
       
 ■ 軌道要素1:「jamsat−keps:880」より
                 SB KEPS @ AMSAT  $ORB99106.N
                 2Line Orbital Elements 99106.AMSAT

 HR AMSAT ORBITAL ELEMENTS FOR AMATEUR SATELLITES IN NASA FORMAT
 FROM WA5QGD FORT WORTH,TX April 16, 1999
 SEND SUBSCRIBE/UNSUBSCRIBE TO majordomo@amsat.org ONLY
 BID: ORB99106.N

 DECODE 2-LINE ELSETS WITH THE FOLLOWING KEY:
 1 AAAAAU 00  0  0 BBBBB.BBBBBBBB  .CCCCCCCC  00000-0  00000-0 0  DDDZ
 2 AAAAA EEE.EEEE FFF.FFFF GGGGGGG HHH.HHHH III.IIII JJ.JJJJJJJJKKKKKZ
 KEY: A-CATALOGNUM B-EPOCHTIME C-DECAY D-ELSETNUM E-INCLINATION F-RAAN
 G-ECCENTRICITY H-ARGPERIGEE I-MNANOM J-MNMOTION K-ORBITNUM Z-CHECKSUM

 TO ALL RADIO AMATEURS BT

  FO-29
  1 24278U 96046B   99104.89350198  .00000014  00000-0  52998-4 0 02494
  2 24278 098.5531 064.5127 0350628 258.0884 098.0743 13.52666080131250
   
 ■ 軌道要素2:「jamsat−keps:882」より
                 SB KEPS @ AMSAT  $ORB99106.O
                 Orbital Elements  99106.OSCAR

  HR AMSAT ORBITAL ELEMENTS FOR OSCAR SATELLITES
  FROM WA5QGD FORT WORTH,TX April 16, 1999
  SEND SUBSCRIBE/UNSUBSCRIBE TO majordomo@amsat.org ONLY
  BID: ORB99106.O
  TO ALL RADIO AMATEURS BT

  Satellite: FO-29
  Catalog number: 24278
  Epoch time:      99104.89350198
  Element set:    0249
  Inclination:      098.5531 deg
  RA of node:       064.5127 deg
  Eccentricity:    0.0350628
  Arg of perigee:   258.0884 deg
  Mean anomaly:     098.0743 deg
  Mean motion:   13.52666080 rev/day
  Decay rate:        1.4e-07 rev/day^2
  Epoch rev:           13125
  Checksum:              326
 -----------------------------------------------------------
  2)FO−29(ふじ3号)の 4月17日(土)のJAアナログテレメトリの
    一部分は次のようになっていました.17日以前のデータも一部分を掲示
    しておきます.
   
  AS13157C1  17Apr99
  JST 13:36 - 13:47

  HI HI AE C7 88 55 0C CB FF 1E 00 56 8A 9B 7C 5F 93 90 B0 70 B3 B1 B1 B2 B0 
  HI HI AE C7 88 55 11 CB FF 0E 00 56 57 8E 7C 60 93 90 B0 81 B3 B1 B1 B2 B0 
  HI HI AE C7 88 55 16 CB FF 0D 00 56 92 87 7E 60 93 90 B0 8B B3 B0 B1 B2 B0 
  HI HI AE C7 88 55 1B CB FF 0D 00 56 58 A2 70 60 93 90 B0 90 B3 B0 B1 B2 B0 
  HI HI AE C7 88 55    CB FF 0D 00 56 72 AC 60 60 93 90 B0 6B B3 B0 B1 B2 B0 
  HI HI AE C7 88 55 0B CB FF 0D 00 56 57 61 88 60 93 90 B0 8E B2 B0 B1 B1 B0 
  HI HI AE C7 88 55 11 CB FF 0D 00 56 8F 9B 65 60 93 90 B0 86 B2 B0 B1 B1 B0 
  HI HI AE C7 88 55 16 CB FF 0D 00 56 3E 73 92 60 94 90 B0 81 B2 B0 B1 B1 B0
  HI HI AE C7 88 55 1B CB FF 0D 00 56 97 70 76 60 94 91 B0 85 B2 B0 B1 B1 B0 
  HI HI AE C7 88 55 01 CB FF 0D 00 56 4E 90 80 60 94 91 B0 71 B2 AF B1 B1 B0 
  HI HI AE C7 88 55 06 CB 05 0D 00 56 87 43 85 60 94 90 B0 8D B2 AF B0 B1 B0 
  HI HI AE C7 88 55 0B CB FF 0D 00 56 5F AB 75 60 94 91 B0 80 B2 AF B0 B1 B0 
  HI HI AE C7 88 55 11 CB FF 0D 00 56 59 28 7E  
 
  AS13144C1  16Apr99
  JST   14:26 - 14:40

 HI HI AE C7 88 55 1F C0 FF OD 00 56 6B 9F 7D 60 94 90 B1 76 B3 B1 B3 B3 AF 
 HI HI AE 07 88 55 04 C0 FF 9D 00 56 5D 3C 75 60 94 90 B1 76 B3 B1 B3 B3 AF 
 HI HI AE C7 88 55 0A C0 05 0D 00 56 80 9D 7D 4A 95 92 B0    B3 B1 B3 B3 AF 
 HI HI AE C7 88 51 0F C1 FF 25 00 56 48 47 6F 5F 92 8F B0 78 B3 B1 B3 B3 AF 
 HI HI AE C7 88 51 14 C1 FF 0D 00 56 91 86 83 60 93 90 B0 6F B3 B1 B2 B3 AF 
 HI HI AE C7 88 55 19 C2 FF 0D 00 56 40 54 6B 5F 92 8F B0 74 B3 B1 B2 B2 AF 
 HI HI AE C7 88 55 1E C2 0A 0D 00 56 96 6A 83 5F 92 8F B0 7F B3 B0 B2 B3 AF 
 HI HI AE C7 88 55 03 C2 FF 0D 00 56 45 69 6A 5F 92 8F B0 86 B3 B1 B2 B2 AF 
 HI HI AE C7 88 55 08 C2 FF 0D 00 56 8C 4E 7E 5F 92 8F B0 94 B2 B0 B2 B2 AF 
 HI HI AE C7 88 55 0D C3 FF 0D 00 56 5E 73 6D 5F 92 8F B9    B2 B0 B2 B3 AF 
 HI HI AE C7 88 55 12 C3 FF 0D 00 56 72 3B 85 5F 92 90 B0 71 B2 B0 B2 B2 AF 
 HI HI AE C7 88 55 18 C3 FF 25 00 56 7D 6E 74 5F 92 90 B0 8B B2 B0 B2 B2 AF 
 HI HI AE C7 88 55 1D C4 FF 0D 00 56 5D 35 87 5F 92 90 B0 84 B2 B0 B2 B2 AF 
 HI HI AE C7 88 55 02 C4 FF 0D 00 56 98 68 79 60 93 90 B0 77 B2 AF B2 B2 AF 
 HI HI AE C7 88 51 07 C5 FF 0D 00 56 4  32    60 93 90 B0 7F B2 AF B1 B2 AF 
 HI HI AE C7 88 51 0C C6 0A 0D 00 56 A2 6A 6E 60 93 90 B0 8C B2 AF B1 B2 AF 
 HI HI AE C7 88 51 11 C7 FF 0D 00 56 59 2D 84 60 93 90 B0 71 B2 AF B1 B2 B0 
 HI HI AE C7 88 51 17 C8 FF 0D 00 56 9E 72 70 60 93 90 B0 78 B1 AF B1 B2 AF 
 HI HI AE C7 88 51 1A C9 FF 0D 00 56 67 28 87 60 93 90 B0 7D B1 AF B1 B2 AF 
 HI HI AE C7 88 51 01 CA FF 0D 00 56 8F 7E 6B 90 B0 70 B1 AF B1 B2 B1 B2 AF
 HI HI AE C7 88 55 07 CA FF 0D 00 56 7E 2D 89 60 93 90 B0 99 B1 AF B1 B1 AF 
 HI HI AE C7 78 55 0C CB FF 0D 00 56 78 84 66 60 93 90 B0 64 B1 AF B1 B1 AF 

  S13143C1  16Apr99
  JST  12:45 - 12:56
                                                      
 HI HI AE C7 88 55 17 C0 0A 0D 00 56 7C 96 60 5A 93 90 9D 89 B3 B1 B4 B3 AF
 HI HI AE C7 88 55    C0 FF 0D 00 56 71 3B 84 60 93 90 B0 86 B3 B1 B2 B3 AF 
 HI HI AE C7 88 55 02 C0 FF 0D 00 56 72 3B 63 60 93 8F B0 78 B3 B0 B2 B2 AF 
 HI HI AE C7 88 55 07 C0 0A 0D 00 56 83 3F 87 60 92 90 B0 C0 B2 B0 B2 B2 AF 
 HI HI AE C7 88 55 0C C0 FF 0D 00 56 69 9C 6A 60 92 8F B0 83 B2 B0 B2 B2 AF 
 HI HI AE C7 88 55 11 C0 FF 0D 00 56 92 4A 8B 5F 92 8F B0 6B B2 B0 B  B2 AF
 HI HI AE C7 88 55 17 C0 FF 0D 00 56 60 95 73 60 93 8F B0 6A B2 B0 B2 B2 AF 
 HI HI AE C7 88 55 OE C0 FF 0D 00 56       8E 60 93 90 B0 84 B2 B0 B2 B2 AF
 HI HI AE C7 88 55    C0 FF 0D 00 56 61 8B 7B 5F 93 90 BO 61 B2 B0 B2 B2 AF 
 HI HI AE C7 88 55 06 C0 FF 0D 00 56 9D 80 EE 60 93 90 B0 5A B2 AF B2 B2 AF 
 HI HI AE C7 88 55 0B C0 FF 0D 00 56 6F 7C 82 60 93 90 B0 8D B2 AF B2 B2 AF
 HI HI AE C7 88 55 11 C0 FF 0D 00 56 84 90 87 60 93 90 B0 6D B1 AF B2 B1 AF
 HI HI AE C7 88 55 1A C0 FF 0D 00 56 5        60 93 90 B0 59 B1 AF B1 B1 AF 
 HI HI AE C7 88 55 00 C0 FF 0D 00 56 91 7D 79 60 93 90 B0 5F B1 AF B1 B1 B0 
 HI HI AE C7 88 55 06 C0 FF 0D 00 56 5A 96 82 60 94 91 B0 62 B1 AF B1 B1 AF 

  AS13131C1  15Apr99
  JST  15:22 - 15:33
         
 HI HI AE C7 88 55 1C C0 FF 1A 00 56 68 57 81 5F 92 8F B0 8F B2 B1 B3 B3 AF 
 HI HI AE C7 88 55 01 C0 0A 0D 00 56 68 8C 83 5F 92 91 B0 80 B2 B1 B3 B3 AF 
 HI HI AE C7 88 55 07 C0 0A 0D 00 56 67 5C 84 5F 92 8F B0 BC B2 B0 B3 B3 AF 
 HI HI AE C7 88 55 0C C0 FF 0D 00 56 70 7E 6D 5F 92 8F B0 61 B2 B0 B3 B3 AF 
 HI HI AE C7 88 55 11 C0 FF 0D 00 56 5F 5C 85 5F 92 8F B0 6D B2 B0 B3 B3 AF 
 HI HI AE C7 88 55 16 C0 FF 0D 00 56 7E 76 71 5F 92 90 B0 69 B2 B0 B3 B3 AF 
 HI HI AE C7 88 55 1B C0 FF 0D 00 56 58 5C 88 5F 92 8F B0 88 B2 B0 B3 B2 AF 
 HI HI AE C7 88 55 00 C0 FF 0D 00 56 87 69 75 5F 92 8F B0 9E B2 B0 B3 B3 AF 
 HI HI AE C7 88 55 15 C0 FF 0D 00 56 56 5D 8A 5F 92 8F B0 77 B2 AF B2 B2 AF 
 HI HI AE C7 88 55 0A C0 FF 0D 00 56 93 6C 76 60 93 90 B0 87 B1 B0 B3 B2 AF 
 HI HI AE C7 88 55 1A C0 FF 0D 00 56 55    87 60 93 90 B0 6F B1 AF B2 B2 B0 
 HI HI AE C7 88 55 04 C0 FF 0D 00 56 56 60 84 60 93 90 B0 75 B1 AF B2 B2 B0 
 HI HI AE C7 88 55    C0 FF 0D 00 56     D 87 60 93 90 B0 86 B1 AF B2 B2 AF 
 HI HI AE C7 88 55 0F C0 FF 0D 00 56 56 6E 7F 60 93 90 B0 6B B1 AF B2 B2 AF 

  AS13130C1   15Apr99
  JST  13:36 - 13:56

 HI HI AE C7 88 55    B5 FF 0D 00 56 4E 54 77 60 92 8F B0 7F B2 B1 B3 B3 AF 
 HI HI AE C7 88 51 00 B6 FF 0D 00 56 4F 5E 6D 60 92 8F B0 80 B2 B0 B3 B3 AF 
 HI HI AE C7 8B 51 05 B6 FF 0D 00 56 4D 52 79 60 93 90 B0 8E B2 B0 B3 B3 AF 
 HI HI AE C7 88 51 0A B7 FF 0D 00 56 87 82 68 60 92 6F B0 89 H2 B0 B3 B3 AF 
 HI HI AE C7 88 55 10 B8 FF 0D 00 56 51 54 7C 5F 92 90 B0 7C B2 B0 B3 B3 AF 
 HI HI AE C7 88 55 15 B8 FF 0D 00 56 8B 79 69 5F 92 90 B0 85 B2 B0 B3 B3 AF 
 HI HI AE C7 88 55 1A B8 FF 0D 00 56 51 54 80 60 92 8F B0 71 B2 B0 B3 B3 AF 
 HI HI AE C7 88 55 1F B7 FF 0D 00 56 8F       60 93 8F B0 7B B2 B0 B3 B3 AF 
 HI HI AE C7 88 55 04 B9 FF 1D 00 56 52 55 84 5F 92 90 B0 98 B1 AF B3 B2 AF 
 HI HI AE C7 88 51 0A BA 1E 05 00 56 95 72 71 60 93 90 B0 8B B1 AF B3 B2 AF 
 HI HI AE C7 88 51 0F BB FF 0D 00 56 54 57 85 60 93 90 B0 77 B1 AF B2 B2 AF 
 HI HI AE C7 88 51 14 BC FF 0D 00 56 99 6F 7C 5F 93 90 B0 6C B1 AF B2 B2 AF 
 HI HI AE C7 88 51 19 BD FF 0D 00 56 55 59 86 60 93 90 B0 87 B1 AF B2 B2 AF 
 HI HI AE C7 88 51 1E BD FF 0D 00 56 9B 76    60 93 90 B1 84 B1 AF B2 B2 AF 
 HI HI AE C7 88 51 03 BD FF 9S 00 56 57 64 83 60 93 90 B0 95 B1 AF B2 B2 AF 
 HI HI AE C7 88 55 18 BF FF 0D 00 56 5A 72 7F 60 93 91 B0 A1 B0 AE B2 B2 AF 
 HI HI AE C7 88 55 1D BF FF 0D A0 56 96 7D 94 60 95 91 B0 65 B0 AF B2 B2 AF 
 HI HI AE C7 88 55 02 BF FF 0D 00 56 5D 79 70 60 94 91 B0 78 B0 AE B2 B1 AF 
  
  AS13091C1   12Apr99
  JST  14:22 - 14:38

 HI HI AE C7 88 51 05 A1 FF 0D 00 56 EO 55 59 60 92 90 B0 D8 B1 AF B5 B3 AF           
 HI HI AE C7 88 51 01 A1 FF 09 00 56 88 A1 5A 60 93 90 B0 90 B0 AF B4 B3 AF 
 HI HI AE C7 88 51 07 A1 FF 0D 00 56 42 74 77 60 93 90 B0 68 B0 AE B4 B3 AF 
 HI HI AE C7 88 51 11 A1 FF 0D 00 56 73 AF 5B 60 93 90 B0 7B B0 AE B4 B3 AF 
 HI HI AE C7 88 51 16 A1 FF 0D 00 56 3B 41 7F 60 93 90 B0 BC B0 AE B4 B3 AF
 HI HI AE C7 88 51 00 A1 FF 0D 00 56 3E 8B 72 60 93 90 B0 57 B0 AE B4 B3 AF 
 HI HI AE C7 88 51    A1 FF 0D 00 56 71 2B 89 60 93 91 B0 B6 B0 AE B3 B3 AF 
  
  AS13089C1   12Apr99
  JST   12:53 - 13:05
                                       
